OTTER BROOK LAKE : From 07/08/2018 10:00 to 07/22/2018 22:00

Date STAGE [FT] FLOW [CFS] LAKE ELEVATION [FT] PRECIPITATION INCREMENT [IN] AIR TEMPERATURE [DEGF]
07/22/2018 12:00 -- -- -- 0.00 --
07/22/2018 11:00 5.73 -- 19.01 0.00 80.3
07/22/2018 10:00 5.73 -- 19.02 0.00 79.2
07/22/2018 09:00 5.73 -- 19.01 0.00 74.1
07/22/2018 08:00 5.73 -- 19.01 0.00 72.9
07/22/2018 07:00 5.74 -- 19.02 0.02 70.2
07/22/2018 06:00 5.74 -- 19.02 0.05 65.1
07/22/2018 05:00 5.74 -- 19.02 0.01 63.7
07/22/2018 04:00 5.74 -- 19.05 0.00 64.4
07/22/2018 03:00 5.74 5.5 19.03 0.00 64.3
07/22/2018 02:00 5.74 5.5 19.03 0.00 64.1
07/22/2018 01:00 5.74 5.5 19.02 0.00 64.1
07/22/2018 00:00 -- -- 19.02 0.00 64.3
07/21/2018 23:00 5.74 5.5 19.02 0.00 64.3
07/21/2018 22:00 5.74 5.5 19.03 0.00 64.1
07/21/2018 21:00 5.75 5.8 19.03 0.00 62.7
07/21/2018 20:00 5.75 5.8 19.03 0.00 62.9
07/21/2018 19:00 5.75 5.8 19.03 0.00 64.3
07/21/2018 18:00 5.75 5.8 19.03 0.00 66.0
07/21/2018 17:00 5.75 5.8 19.03 0.00 66.8
07/21/2018 16:00 5.75 5.8 19.04 0.00 69.7
07/21/2018 15:00 5.75 5.8 19.03 0.00 73.5
07/21/2018 14:00 5.75 5.8 19.04 0.00 76.1
07/21/2018 13:00 5.75 5.8 19.04 0.00 79.1
07/21/2018 12:00 5.75 5.8 19.04 0.00 81.0
07/21/2018 11:00 5.76 6.1 19.06 0.00 80.2
07/21/2018 10:00 5.77 6.4 19.06 0.00 79.9
07/21/2018 09:00 5.77 6.4 19.06 0.00 78.3
07/21/2018 08:00 5.77 6.4 19.06 0.00 76.2
07/21/2018 07:00 5.77 6.4 19.06 0.00 73.8
07/21/2018 06:00 5.77 6.4 19.06 0.00 70.4
07/21/2018 05:00 5.77 6.4 19.07 0.00 70.8
07/21/2018 04:00 5.77 6.4 19.07 0.00 66.5
07/21/2018 03:00 5.78 6.7 19.07 0.00 57.3
07/21/2018 02:00 5.78 6.7 19.08 0.00 57.4
07/21/2018 01:00 5.78 6.7 19.08 0.00 58.1
07/21/2018 00:00 5.78 6.7 19.08 0.00 58.7
07/20/2018 23:00 5.78 6.7 19.08 0.00 59.8
07/20/2018 22:00 5.79 7.0 19.08 0.00 61.3
07/20/2018 21:00 5.79 7.0 19.09 0.00 62.8
07/20/2018 20:00 5.79 7.0 19.09 0.00 64.3
07/20/2018 19:00 5.79 7.0 19.09 0.00 66.7
07/20/2018 18:00 5.79 7.0 19.09 0.00 72.0
07/20/2018 17:00 5.80 7.3 19.09 0.00 72.3
07/20/2018 16:00 5.80 7.3 19.09 0.00 73.0
07/20/2018 15:00 5.80 7.3 19.09 0.00 77.5
07/20/2018 14:00 5.80 7.3 19.09 0.00 82.7
07/20/2018 13:00 5.80 7.3 19.10 0.00 84.9
07/20/2018 12:00 5.80 7.3 19.10 0.00 85.1
07/20/2018 11:00 5.81 7.7 19.11 0.00 84.8
07/20/2018 10:00 5.82 8.1 19.11 0.00 84.6
07/20/2018 09:00 5.82 8.1 19.12 0.00 83.1
07/20/2018 08:00 5.82 8.1 19.12 0.00 83.0
07/20/2018 07:00 5.82 8.1 19.13 0.00 79.7
07/20/2018 06:00 5.82 8.1 19.13 0.00 75.0
07/20/2018 05:00 5.82 8.1 19.13 0.00 69.4
07/20/2018 04:00 5.82 8.1 19.14 0.00 63.1
07/20/2018 03:00 5.83 8.4 19.14 0.00 54.0
07/20/2018 02:00 5.83 8.4 19.14 0.00 53.8
07/20/2018 01:00 5.84 8.8 19.14 0.00 54.6
07/20/2018 00:00 5.84 8.8 19.15 0.00 55.1
07/19/2018 23:00 5.84 8.8 19.15 0.00 56.4
07/19/2018 22:00 5.84 8.8 19.15 0.00 57.0
07/19/2018 21:00 5.85 9.2 19.16 0.00 58.6
07/19/2018 20:00 5.85 9.2 19.16 0.00 59.9
07/19/2018 19:00 5.85 9.2 19.16 0.00 61.6
07/19/2018 18:00 5.85 9.2 19.16 0.00 63.5
07/19/2018 17:00 5.86 9.6 19.17 0.00 65.9
07/19/2018 16:00 5.86 9.6 19.17 0.00 68.2
07/19/2018 15:00 5.86 9.6 19.17 0.00 73.2
07/19/2018 14:00 5.86 9.6 19.17 0.00 78.5
07/19/2018 13:00 5.86 9.6 19.18 0.00 81.1
07/19/2018 12:00 5.87 10.0 19.18 0.00 81.7
07/19/2018 11:00 5.87 10.0 19.19 0.00 80.2
07/19/2018 10:00 5.88 10.4 19.19 0.00 78.6
07/19/2018 09:00 5.88 10.4 19.19 0.00 78.3
07/19/2018 08:00 5.89 10.9 19.21 0.00 75.7
07/19/2018 07:00 5.89 10.9 19.21 0.00 74.0
07/19/2018 06:00 -- -- 19.21 0.00 67.8
07/19/2018 05:00 5.89 10.9 19.21 0.00 64.0
07/19/2018 04:00 5.89 10.9 19.22 0.00 57.8
07/19/2018 03:00 5.90 11.3 19.22 0.00 48.9
07/19/2018 02:00 5.90 11.3 19.23 0.00 48.6
07/19/2018 01:00 5.91 11.8 19.23 0.00 49.1
07/19/2018 00:00 5.91 11.8 19.23 0.00 50.0
07/18/2018 23:00 5.91 11.8 19.23 0.00 51.5
07/18/2018 22:00 5.91 11.8 19.23 0.00 52.4
07/18/2018 21:00 5.91 11.8 19.24 0.00 54.2
07/18/2018 20:00 5.92 12.2 19.24 0.00 55.7
07/18/2018 19:00 5.92 12.2 19.24 0.00 57.7
07/18/2018 18:00 5.92 12.2 19.24 0.00 59.6
07/18/2018 17:00 5.92 12.2 19.24 0.00 62.4
07/18/2018 16:00 5.92 12.2 19.24 0.00 66.5
07/18/2018 15:00 5.92 12.2 19.25 0.00 73.7
07/18/2018 14:00 5.93 12.7 19.24 0.00 75.3
07/18/2018 13:00 5.93 12.7 19.24 0.00 77.8
07/18/2018 12:00 5.92 12.2 19.24 0.00 77.9
07/18/2018 11:00 5.93 12.7 19.25 0.00 78.4
07/18/2018 10:00 5.93 12.7 19.25 0.00 78.5
07/18/2018 09:00 5.94 13.2 19.25 0.00 76.4
07/18/2018 08:00 5.93 12.7 19.25 0.00 75.5
07/18/2018 07:00 5.93 12.7 19.27 0.00 72.4
07/18/2018 06:00 5.94 13.2 19.25 0.00 69.3
07/18/2018 05:00 5.93 12.7 19.26 0.00 67.3
07/18/2018 04:00 5.93 12.7 19.24 0.00 65.4
07/18/2018 03:00 5.92 12.2 19.23 0.00 62.0
07/18/2018 02:00 5.91 11.8 19.23 0.00 63.3
07/18/2018 01:00 5.91 11.8 19.22 0.00 64.6
07/18/2018 00:00 5.90 11.3 19.21 0.00 66.9
07/17/2018 23:00 5.89 10.9 19.20 0.00 68.8
07/17/2018 22:00 5.88 10.4 19.19 0.00 69.5
07/17/2018 21:00 5.87 10.0 19.17 0.00 69.4
07/17/2018 20:00 5.86 9.6 19.17 0.00 69.9
07/17/2018 19:00 5.85 9.2 19.16 0.00 70.9
07/17/2018 18:00 5.84 8.8 19.14 0.00 70.8
07/17/2018 17:00 5.83 8.4 19.14 0.00 70.7
07/17/2018 16:00 5.82 8.1 19.13 0.00 70.7
07/17/2018 15:00 5.82 8.1 19.11 0.00 70.9
07/17/2018 14:00 5.80 7.3 19.10 0.00 70.8
07/17/2018 13:00 5.80 7.3 19.10 0.12 70.5
07/17/2018 12:00 5.78 6.7 19.08 0.18 70.5
07/17/2018 11:00 5.76 6.1 19.05 0.07 70.7
07/17/2018 10:00 5.75 5.8 19.04 0.45 70.8
07/17/2018 09:00 5.74 5.5 19.03 0.28 70.6
07/17/2018 08:00 5.73 5.3 19.00 0.23 69.5
07/17/2018 07:00 5.69 4.3 18.97 0.06 70.9
07/17/2018 06:00 5.67 3.8 18.95 -- 77.1
07/17/2018 05:00 -- -- 18.94 0.02 77.4
07/17/2018 04:00 -- -- 18.94 0.02 77.7
07/17/2018 03:00 -- -- 18.93 0.02 78.0
07/17/2018 02:00 -- -- 18.93 0.02 78.2
07/17/2018 01:00 -- -- 18.93 0.02 78.5
07/17/2018 00:00 -- -- 18.93 0.02 78.8
07/16/2018 23:00 -- -- 18.92 0.02 79.1
07/16/2018 22:00 -- -- 18.92 0.02 79.4
07/16/2018 21:00 -- -- 18.92 0.02 79.7
07/16/2018 20:00 -- -- 18.92 0.02 79.9
07/16/2018 19:00 -- -- 18.91 0.02 80.2
07/16/2018 18:00 -- -- 18.91 0.00 80.5
07/16/2018 17:00 5.66 3.6 18.92 0.00 80.8
07/16/2018 16:00 5.66 3.6 18.92 0.00 80.6
07/16/2018 15:00 5.66 3.6 18.92 0.00 83.6
07/16/2018 14:00 5.66 3.6 18.92 0.00 87.9
07/16/2018 13:00 5.66 3.6 18.92 0.00 92.0
07/16/2018 12:00 5.66 3.6 18.92 0.00 89.2
07/16/2018 11:00 5.66 3.6 18.92 0.00 83.1
07/16/2018 10:00 5.66 3.6 18.92 0.00 91.0
07/16/2018 09:00 5.66 3.6 18.93 0.00 91.1
07/16/2018 08:00 5.66 3.6 18.92 0.00 89.5
07/16/2018 07:00 5.66 3.6 18.92 0.00 84.9
07/16/2018 06:00 5.66 3.6 18.93 0.00 81.3
07/16/2018 05:00 5.67 3.8 18.93 0.00 78.0
07/16/2018 04:00 5.67 3.8 18.93 0.00 72.6
07/16/2018 03:00 5.66 3.6 18.93 0.00 66.2
07/16/2018 02:00 5.66 3.6 18.93 0.00 65.0
07/16/2018 01:00 5.66 3.6 18.93 0.00 66.1
07/16/2018 00:00 5.66 3.6 18.93 0.00 66.8
07/15/2018 23:00 5.66 3.6 18.93 0.00 67.9
07/15/2018 22:00 5.66 3.6 18.93 0.00 68.7
07/15/2018 21:00 5.66 3.6 18.93 0.00 70.2
07/15/2018 20:00 5.66 3.6 18.93 0.00 71.5
07/15/2018 19:00 5.66 3.6 18.93 0.00 72.3
07/15/2018 18:00 5.66 3.6 18.93 0.00 74.3
07/15/2018 17:00 5.66 3.6 18.93 0.00 75.7
07/15/2018 16:00 5.67 3.8 18.92 0.00 77.9
07/15/2018 15:00 5.67 3.8 18.93 0.00 81.7
07/15/2018 14:00 5.67 3.8 18.92 0.00 87.2
07/15/2018 13:00 5.67 3.8 18.93 0.00 86.2
07/15/2018 12:00 5.67 3.8 18.93 0.00 85.9
07/15/2018 11:00 5.67 3.8 18.93 0.00 87.7
07/15/2018 10:00 5.67 3.8 18.93 0.00 88.8
07/15/2018 09:00 5.67 3.8 18.93 0.00 87.1
07/15/2018 08:00 5.67 3.8 18.93 0.00 85.3
07/15/2018 07:00 5.67 3.8 18.93 0.00 82.8
07/15/2018 06:00 5.67 3.8 18.93 0.00 79.1
07/15/2018 05:00 5.67 3.8 18.93 0.00 76.8
07/15/2018 04:00 5.67 3.8 18.94 0.00 71.1
07/15/2018 03:00 5.67 3.8 18.93 0.00 66.4
07/15/2018 02:00 5.67 3.8 18.93 0.00 67.0
07/15/2018 01:00 5.67 3.8 18.94 0.00 67.1
07/15/2018 00:00 5.67 3.8 18.94 0.00 67.4
07/14/2018 23:00 5.67 3.8 18.94 0.00 67.6
07/14/2018 22:00 5.67 3.8 18.94 0.00 67.5
07/14/2018 21:00 5.67 3.8 18.93 0.00 68.0
07/14/2018 20:00 5.67 3.8 18.94 0.00 67.7
07/14/2018 19:00 5.67 3.8 18.93 0.00 67.9
07/14/2018 18:00 5.67 3.8 18.93 0.02 68.6
07/14/2018 17:00 5.67 3.8 18.94 0.17 70.9
07/14/2018 16:00 5.67 3.8 18.92 0.06 71.5
07/14/2018 15:00 5.66 3.6 18.92 0.00 73.8
07/14/2018 14:00 5.66 3.6 18.92 0.00 76.0
07/14/2018 13:00 5.66 3.6 18.92 0.00 77.0
07/14/2018 12:00 5.65 3.4 18.92 0.00 78.1
07/14/2018 11:00 5.66 3.6 18.92 0.00 78.3
07/14/2018 10:00 5.65 3.4 18.92 0.00 76.5
07/14/2018 09:00 5.65 3.4 18.92 0.00 74.0
07/14/2018 08:00 5.66 3.6 18.92 0.00 73.9
07/14/2018 07:00 5.65 3.4 18.92 0.00 72.1
07/14/2018 06:00 5.65 3.4 18.92 0.00 69.7
07/14/2018 05:00 5.65 3.4 18.92 0.00 68.4
07/14/2018 04:00 5.65 3.4 18.92 0.00 66.0
07/14/2018 03:00 5.66 3.6 18.93 0.00 64.1
07/14/2018 02:00 5.66 3.6 18.93 0.00 61.6
07/14/2018 01:00 5.66 3.6 18.93 0.00 61.1
07/14/2018 00:00 5.66 3.6 18.93 0.00 60.0
07/13/2018 23:00 5.66 3.6 18.93 0.00 59.4
07/13/2018 22:00 5.66 3.6 18.93 0.00 61.0
07/13/2018 21:00 5.66 3.6 18.93 0.00 63.1
07/13/2018 20:00 5.66 3.6 18.93 0.00 66.5
07/13/2018 19:00 5.67 3.8 18.93 0.00 68.3
07/13/2018 18:00 5.67 3.8 18.93 0.00 70.2
07/13/2018 17:00 5.67 3.8 18.93 0.00 73.2
07/13/2018 16:00 5.66 3.6 18.93 0.00 77.0
07/13/2018 15:00 5.66 3.6 18.93 0.00 78.3
07/13/2018 14:00 5.66 3.6 18.93 0.00 82.5
07/13/2018 13:00 5.67 3.8 18.94 0.00 86.8
07/13/2018 12:00 5.67 3.8 18.94 0.00 88.3
07/13/2018 11:00 5.67 3.8 18.94 0.00 87.6
07/13/2018 10:00 5.67 3.8 18.94 0.00 86.0
07/13/2018 09:00 5.67 3.8 18.94 0.00 87.2
07/13/2018 08:00 5.67 3.8 18.94 0.00 83.7
07/13/2018 07:00 5.67 3.8 18.94 0.00 82.0
07/13/2018 06:00 5.67 3.8 18.94 0.00 77.6
07/13/2018 05:00 5.67 3.8 18.95 0.00 73.4
07/13/2018 04:00 5.67 3.8 18.95 0.00 67.2
07/13/2018 03:00 5.67 3.8 18.95 0.00 57.9
07/13/2018 02:00 5.67 3.8 18.95 0.00 57.2
07/13/2018 01:00 5.67 3.8 18.95 0.00 58.2
07/13/2018 00:00 5.67 3.8 18.95 0.00 60.3
07/12/2018 23:00 5.68 4.0 18.95 0.00 61.9
07/12/2018 22:00 5.68 4.0 18.95 0.00 61.1
07/12/2018 21:00 5.68 4.0 18.95 0.00 60.7
07/12/2018 20:00 5.68 4.0 18.95 0.00 62.1
07/12/2018 19:00 5.68 4.0 18.95 0.00 63.6
07/12/2018 18:00 5.68 4.0 18.95 0.00 65.8
07/12/2018 17:00 5.68 4.0 18.95 0.00 67.7
07/12/2018 16:00 5.68 4.0 18.95 0.00 69.3
07/12/2018 15:00 5.67 3.8 18.95 0.00 73.7
07/12/2018 14:00 5.67 3.8 18.95 0.00 75.5
07/12/2018 13:00 5.67 3.8 18.95 0.00 75.4
07/12/2018 12:00 5.68 4.0 18.96 0.00 79.4
07/12/2018 11:00 5.68 4.0 18.95 0.00 81.4
07/12/2018 10:00 5.68 4.0 18.96 0.00 81.8
07/12/2018 09:00 5.68 4.0 18.96 0.00 79.5
07/12/2018 08:00 5.69 4.3 18.96 0.00 79.0
07/12/2018 07:00 5.68 4.0 18.96 0.00 77.0
07/12/2018 06:00 5.69 4.3 18.97 0.00 74.2
07/12/2018 05:00 5.68 4.0 18.97 0.00 67.9
07/12/2018 04:00 5.68 4.0 18.97 0.00 62.0
07/12/2018 03:00 5.69 4.3 18.97 0.00 52.1
07/12/2018 02:00 5.69 4.3 18.97 0.00 51.1
07/12/2018 01:00 5.69 4.3 18.97 0.00 51.5
07/12/2018 00:00 5.69 4.3 18.97 0.00 52.4
07/11/2018 23:00 5.70 4.5 18.98 0.00 54.0
07/11/2018 22:00 5.70 4.5 18.97 0.00 55.4
07/11/2018 21:00 5.70 4.5 18.98 0.00 55.5
07/11/2018 20:00 5.70 4.5 18.97 0.00 58.5
07/11/2018 19:00 5.70 4.5 18.98 0.00 60.2
07/11/2018 18:00 5.70 4.5 18.98 0.00 63.4
07/11/2018 17:00 5.70 4.5 18.97 0.00 65.3
07/11/2018 16:00 5.70 4.5 18.97 0.00 70.2
07/11/2018 15:00 5.71 4.7 18.97 0.00 77.4
07/11/2018 14:00 5.71 4.7 18.97 0.00 78.3
07/11/2018 13:00 5.71 4.7 18.99 0.00 81.5
07/11/2018 12:00 5.71 4.7 19.00 0.00 80.4
07/11/2018 11:00 5.72 5.0 18.97 0.00 80.6
07/11/2018 10:00 5.72 5.0 18.99 0.00 79.0
07/11/2018 09:00 5.72 5.0 19.00 0.00 78.9
07/11/2018 08:00 5.72 5.0 19.00 0.00 79.6
07/11/2018 07:00 5.72 5.0 18.99 0.00 77.1
07/11/2018 06:00 5.72 5.0 19.00 0.00 78.3
07/11/2018 05:00 5.72 5.0 19.00 0.00 73.1
07/11/2018 04:00 5.72 5.0 19.00 0.00 70.1
07/11/2018 03:00 5.72 5.0 19.00 0.00 64.0
07/11/2018 02:00 5.72 5.0 19.00 0.00 63.2
07/11/2018 01:00 5.72 5.0 19.00 0.00 62.8
07/11/2018 00:00 5.72 5.0 19.00 0.00 63.5
07/10/2018 23:00 5.72 5.0 19.00 0.00 64.0
07/10/2018 22:00 5.72 5.0 19.00 0.00 64.3
07/10/2018 21:00 5.72 5.0 19.00 0.00 64.8
07/10/2018 20:00 5.72 5.0 19.00 0.00 65.3
07/10/2018 19:00 5.72 5.0 19.00 0.00 65.9
07/10/2018 18:00 5.72 5.0 19.00 0.01 66.4
07/10/2018 17:00 5.72 5.0 19.00 0.00 68.8
07/10/2018 16:00 5.72 5.0 19.00 0.07 70.7
07/10/2018 15:00 5.72 5.0 19.00 0.00 78.1
07/10/2018 14:00 5.72 5.0 19.00 0.00 82.0
07/10/2018 13:00 5.72 5.0 19.00 0.00 87.8
07/10/2018 12:00 5.73 5.3 19.00 0.00 87.7
07/10/2018 11:00 5.72 5.0 19.00 0.00 91.5
07/10/2018 10:00 5.73 5.3 19.02 0.00 90.5
07/10/2018 09:00 5.73 5.3 19.02 0.00 89.3
07/10/2018 08:00 5.73 5.3 19.01 0.00 87.1
07/10/2018 07:00 5.73 5.3 19.02 0.00 84.0
07/10/2018 06:00 5.73 5.3 19.01 0.00 80.1
07/10/2018 05:00 5.73 5.3 19.02 0.00 73.6
07/10/2018 04:00 5.73 5.3 19.02 0.00 69.0
07/10/2018 03:00 5.73 5.3 19.02 0.00 59.5
07/10/2018 02:00 5.73 5.3 19.02 0.00 58.5
07/10/2018 01:00 5.74 5.5 19.02 0.00 58.9
07/10/2018 00:00 5.74 5.5 19.02 0.00 59.8
07/09/2018 23:00 5.74 5.5 19.02 0.00 60.8
07/09/2018 22:00 5.74 5.5 19.03 0.00 61.9
07/09/2018 21:00 5.74 5.5 19.02 0.00 63.2
07/09/2018 20:00 5.74 5.5 19.03 0.00 64.5
07/09/2018 19:00 5.74 5.5 19.03 0.00 66.5
07/09/2018 18:00 5.74 5.5 19.03 0.00 69.5
07/09/2018 17:00 5.74 5.5 19.03 0.00 71.4
07/09/2018 16:00 5.74 5.5 19.03 0.00 75.1
07/09/2018 15:00 5.74 5.5 19.03 0.00 82.1
07/09/2018 14:00 5.74 5.5 19.02 0.00 86.3
07/09/2018 13:00 5.74 5.5 19.04 0.00 89.1
07/09/2018 12:00 5.74 5.5 19.03 0.00 89.6
07/09/2018 11:00 5.74 5.5 19.02 0.00 88.7
07/09/2018 10:00 5.75 5.8 19.04 0.00 87.3
07/09/2018 09:00 5.75 5.8 19.03 0.00 86.8
07/09/2018 08:00 5.75 5.8 19.04 0.00 83.7
07/09/2018 07:00 5.75 5.8 19.04 0.00 80.3
07/09/2018 06:00 5.76 6.1 19.04 0.00 75.6
07/09/2018 05:00 5.75 5.8 19.04 0.00 71.2
07/09/2018 04:00 5.75 5.8 19.05 0.00 66.7
07/09/2018 03:00 5.75 5.8 19.05 0.00 57.5
07/09/2018 02:00 5.76 6.1 19.05 0.00 56.5
07/09/2018 01:00 5.76 6.1 19.06 0.00 56.2
07/09/2018 00:00 5.76 6.1 19.05 0.00 57.7
07/08/2018 23:00 5.76 6.1 19.06 0.00 58.4
07/08/2018 22:00 5.76 6.1 19.06 0.00 59.9
07/08/2018 21:00 5.76 6.1 19.06 0.00 61.3
07/08/2018 20:00 5.76 6.1 19.06 0.00 62.4
07/08/2018 19:00 5.76 6.1 19.06 0.00 64.0
07/08/2018 18:00 5.76 6.1 19.06 0.00 67.1
07/08/2018 17:00 5.76 6.1 19.06 0.00 68.7
07/08/2018 16:00 -- -- -- -- --
07/08/2018 15:00 -- -- -- -- --
07/08/2018 14:00 -- -- -- -- --
07/08/2018 13:00 -- -- -- -- --
07/08/2018 12:00 -- -- -- -- --
07/08/2018 11:00 -- -- -- -- --
07/08/2018 10:00 -- -- -- -- --